Weather History for KODX - August, 2012

Change the Weather History Date:

Tuesday, August 7, 2012

  Actual Average Record
Temperature  
Mean Temperature 79 °F 74 °F  
Max Temperature 97 °F 87 °F 100 °F (2000)
Min Temperature 61 °F 62 °F 57 °F (2004)
Degree Days  
Heating Degree Days 0 0  
Month to date heating degree days 0 0  
Since 1 June heating degree days 16 42  
Since 1 July heating degree days 0 5  
Cooling Degree Days 14 10  
Month to date cooling degree days 85 70  
Year to date cooling degree days 955 570  
Since 1 June cooling degree days 868 529  
Growing Degree Days 28 (Base 50)    
Moisture  
Dew Point 62 °F    
Average Humidity 65    
Maximum Humidity 97    
Minimum Humidity 33    
Precipitation  
Precipitation 0.00 in 0.10 in 1.48 in (1992)
Month to date precipitation 0.63 0.67  
Year to date precipitation 10.76 16.42  
Sea Level Pressure  
Sea Level Pressure 29.96 in    
Wind  
Wind Speed 3 mph (NNE)    
Max Wind Speed 31 mph    
Max Gust Speed 40 mph    
Visibility 10 miles    
Events      
T = Trace of Precipitation, MM = Missing Value Source: NWS Daily Summary

Daily Weather History Graph

Daily Weather History Graph

Search for Another Location

Airport or City:

Trip Planner

Search our weather history database for the weather conditions in past years. The results will help you decide how hot, cold, wet, or windy it might be!

Date:

Astronomy

Aug. 07, 2012 Rise Set
Actual Time 6:36 AM CDT 8:45 PM CDT
Civil Twilight 6:06 AM CDT 9:16 PM CDT
Nautical Twilight 5:28 AM CDT 9:53 PM CDT
Astronomical Twilight 4:47 AM CDT 10:34 PM CDT
Moon 11:20 PM CDT (8/7) 12:32 PM CDT (8/7)
Length of Visible Light 15h 09m
Length of Day
14h 08m
Waning Gibbous, 69% of the Moon is Illuminated
Aug 7
Waning Gibbous
Aug 9
Last Quarter
Aug 17
New
Aug 24
First Quarter
Aug 31
Full

Hourly Weather History & Observations

Time (CDT) Temp. Heat Index Dew Point Humidity Pressure Visibility Wind Dir Wind Speed Gust Speed Precip Events Conditions
12:53 AM 68.0 °F - 59.0 °F 73% 29.94 in 10.0 mi Calm Calm - N/A   Clear
1:53 AM 64.0 °F - 60.1 °F 87% 29.93 in 10.0 mi Calm Calm - N/A   Clear
2:53 AM 63.0 °F - 59.0 °F 87% 29.94 in 10.0 mi NW 4.6 mph - N/A   Clear
3:53 AM 64.0 °F - 59.0 °F 84% 29.95 in 10.0 mi Calm Calm - N/A   Clear
4:53 AM 63.0 °F - 59.0 °F 87% 29.95 in 10.0 mi Calm Calm - N/A   Clear
5:53 AM 63.0 °F - 60.1 °F 90% 29.95 in 10.0 mi Calm Calm - N/A   Clear
6:53 AM 61.0 °F - 59.0 °F 93% 29.97 in 10.0 mi Calm Calm - N/A   Clear
7:53 AM 66.9 °F - 62.1 °F 84% 29.97 in 10.0 mi Calm Calm - N/A   Clear
8:53 AM 75.0 °F - 64.9 °F 71% 29.98 in 10.0 mi NNE 3.5 mph - N/A   Clear
9:53 AM 80.1 °F 81.7 °F 64.0 °F 58% 29.97 in 10.0 mi NNW 3.5 mph - N/A   Clear
10:53 AM 87.8 °F 89.4 °F 64.4 °F 46% 30.01 in 10.0 mi South 3.5 mph - N/A   Clear
11:53 AM 90.0 °F 90.0 °F 61.0 °F 38% 29.96 in 10.0 mi West 6.9 mph - N/A   Clear
12:53 PM 93.0 °F 93.8 °F 62.1 °F 36% 29.96 in 10.0 mi NNE 4.6 mph - N/A   Clear
1:53 PM 91.9 °F 91.5 °F 60.1 °F 34% 29.96 in 10.0 mi Variable 3.5 mph - N/A   Clear
2:53 PM 96.1 °F 96.9 °F 62.1 °F 32% 29.95 in 10.0 mi Variable 3.5 mph - N/A   Clear
3:53 PM 91.0 °F 93.8 °F 66.0 °F 44% 29.95 in 10.0 mi NW 5.8 mph - N/A   Clear
4:53 PM 95.0 °F 97.4 °F 64.9 °F 37% 29.94 in 10.0 mi NNE 5.8 mph - N/A   Clear
5:53 PM 91.0 °F 93.0 °F 64.9 °F 42% 29.94 in 10.0 mi NNE 6.9 mph - N/A   Scattered Clouds
6:53 PM 91.0 °F 92.6 °F 64.0 °F 41% 29.93 in 10.0 mi ENE 9.2 mph - N/A   Clear
7:13 PM 78.8 °F - 60.8 °F 54% 29.99 in 1.2 mi ESE 18.4 mph 40.3 mph N/A   Haze
7:18 PM 78.8 °F - 60.8 °F 54% 29.99 in 5.0 mi ESE 19.6 mph 27.6 mph N/A   Haze
7:53 PM 77.0 °F - 59.0 °F 54% 29.96 in 10.0 mi ESE 9.2 mph 17.3 mph N/A   Clear
8:53 PM 73.9 °F - 61.0 °F 64% 29.96 in 10.0 mi Calm Calm - N/A   Clear
9:53 PM 69.1 °F - 64.0 °F 84% 29.97 in 10.0 mi Calm Calm - N/A   Clear
10:53 PM 68.0 °F - 64.0 °F 87% 29.96 in 10.0 mi SSW 3.5 mph - N/A   Clear
11:53 PM 66.9 °F - 63.0 °F 87% 29.97 in 10.0 mi Calm Calm - N/A   Clear